PBO Station Position Time Series. Reference Frame : NAM14
Format Version,1.1.0
4-character ID,P536
Station name,CarrizoRanCS2006
Begin Date, 2006-05-05
End Date, 2019-10-07
Release Date, 2019-10-08
Reference position, 35.2797682848 North Latitude, -120.0250212800 East Longitude, 665.36941 meters elevation,
Date, North (mm), East (mm), Vertical (mm), North Std. Deviation (mm), East Std. Deviation (mm),              Vertical Std. Deviation (mm), Quality,
2006-05-05,0.00, 0.00, 0.00, 1.92, 1.60, 7.41, repro,
2006-05-06,-0.31, -0.55, -3.66, 1.93, 1.61, 7.46, repro,
2006-05-07,-0.89, -1.80, -1.49, 1.92, 1.59, 7.37, repro,
2006-05-08,-1.71, -0.00, 1.26, 1.92, 1.58, 7.37, repro,
2006-05-09,-0.64, -0.95, -2.51, 1.99, 1.61, 7.54, repro,
2006-05-10,-1.08, -0.99, -3.17, 1.91, 1.61, 7.38, repro,
2006-05-11,-2.19, -2.93, 2.29, 1.93, 1.63, 7.53, repro,
2006-05-12,-0.44, -0.54, 4.78, 1.92, 1.61, 7.41, repro,
2006-05-13,-1.29, -0.48, 4.27, 1.94, 1.60, 7.49, repro,
2006-05-14,-0.61, -1.82, 2.02, 1.97, 1.62, 7.52, repro,
2006-05-15,-2.04, -0.78, -4.46, 1.92, 1.60, 7.42, repro,
2006-05-16,-1.17, -0.48, 2.25, 1.97, 1.67, 7.65, repro,
2006-05-17,-0.97, -0.55, -2.27, 1.96, 1.65, 7.58, repro,
2006-05-18,-0.25, -0.84, 6.35, 2.02, 1.70, 7.83, repro,
2006-05-19,-1.03, -2.42, 2.52, 2.08, 1.65, 7.78, repro,
2006-05-20,0.32, 0.33, 14.88, 2.00, 1.64, 7.62, repro,
2006-05-21,-2.95, -0.01, 8.75, 2.08, 1.68, 7.94, repro,
2006-05-22,-2.56, -1.95, 3.99, 2.01, 1.66, 7.64, repro,
2006-05-23,-1.37, -1.07, 3.84, 2.05, 1.69, 7.71, repro,
2006-05-24,-1.51, -1.60, 3.07, 2.00, 1.62, 7.61, repro,
2006-05-25,-0.57, -1.53, 0.14, 2.17, 1.73, 8.17, repro,
2006-05-26,-1.62, -1.31, 3.80, 2.05, 1.65, 7.77, repro,
2006-05-27,-1.55, -0.84, 7.78, 1.99, 1.63, 7.59, repro,
2006-05-28,-0.92, 0.19, 5.49, 2.01, 1.62, 7.60, repro,
2006-05-29,-1.04, -0.90, 7.08, 2.02, 1.64, 7.67, repro,
2006-05-30,0.42, -0.39, 1.60, 2.05, 1.64, 7.69, repro,
2006-05-31,-1.04, -0.83, 2.17, 2.09, 1.70, 7.90, repro,
2006-06-01,-0.26, -0.32, -0.98, 2.02, 1.66, 7.75, repro,
2006-06-02,-3.42, -0.48, 0.81, 2.15, 1.73, 8.10, repro,
2006-06-03,-1.41, -1.39, 2.63, 2.08, 1.68, 7.85, repro,
2006-06-04,-2.20, -1.42, 5.53, 2.06, 1.65, 7.77, repro,
2006-06-05,-1.09, -2.03, 7.06, 2.08, 1.68, 7.85, repro,
2006-06-06,-1.27, -1.68, 5.49, 2.05, 1.65, 7.73, repro,
2006-06-07,-2.70, -0.91, 7.51, 2.05, 1.65, 7.78, repro,
2006-06-08,-2.11, -0.80, -2.32, 2.04, 1.66, 7.72, repro,
2006-06-09,-0.41, -0.30, 7.09, 2.10, 1.70, 7.93, repro,
2006-06-10,-2.68, -0.93, 9.76, 2.01, 1.62, 7.61, repro,
2006-06-11,-3.05, -0.67, 8.72, 2.02, 1.65, 7.73, repro,
2006-06-12,-1.78, 0.81, 0.11, 2.03, 1.65, 7.75, repro,
2006-06-13,-0.82, 0.62, 3.72, 2.07, 1.66, 7.81, repro,
2006-06-14,-0.61, 0.47, 9.54, 2.02, 1.63, 7.60, repro,
2006-06-15,-2.11, -1.51, 9.90, 2.04, 1.65, 7.79, repro,
2006-06-16,-1.33, -1.89, 9.87, 2.00, 1.62, 7.56, repro,
2006-06-17,-2.45, -0.03, 9.56, 2.00, 1.62, 7.60, repro,
2006-06-18,-0.89, 0.46, 16.90, 2.04, 1.68, 7.95, repro,
2006-06-19,-1.60, -1.16, 4.66, 2.05, 1.68, 7.95, repro,
2006-06-20,-1.31, -0.62, 10.95, 2.03, 1.66, 7.80, repro,
2006-06-21,-1.61, -0.85, 10.29, 2.02, 1.65, 7.76, repro,
2006-06-22,-2.39, -0.77, 13.29, 2.02, 1.67, 7.81, repro,
2006-06-23,-2.82, -0.62, 7.11, 2.08, 1.73, 8.02, repro,
2006-06-24,-1.00, 0.98, 3.79, 2.04, 1.68, 7.93, repro,
2006-06-25,-1.80, -0.41, 3.42, 2.03, 1.69, 7.90, repro,
2006-06-26,-1.79, -0.50, 2.52, 2.04, 1.67, 7.85, repro,
2006-06-27,-2.02, -2.52, 7.73, 2.11, 1.77, 8.15, repro,
2006-06-28,-0.72, -1.76, 2.43, 2.03, 1.67, 7.80, repro,
2006-06-29,-1.36, -0.57, 10.17, 1.97, 1.66, 7.75, repro,
2006-06-30,-1.71, -0.04, 11.49, 2.00, 1.65, 7.84, repro,
2006-07-01,-0.62, -0.44, 12.58, 2.01, 1.65, 7.82, repro,
2006-07-02,-0.05, -1.37, 8.96, 2.04, 1.69, 7.96, repro,
2006-07-03,-2.54, 0.25, 3.26, 1.99, 1.64, 7.72, repro,
2006-07-04,-1.51, -0.18, 7.59, 1.99, 1.63, 7.73, repro,
2006-07-05,-1.19, 0.02, 1.92, 2.00, 1.64, 7.79, repro,
2006-07-06,-2.03, 0.39, -6.29, 2.00, 1.62, 7.71, repro,
2006-07-07,-1.40, -1.53, 2.68, 2.00, 1.62, 7.76, repro,
2006-07-08,-1.63, -0.51, 2.10, 1.99, 1.64, 7.71, repro,
2006-07-09,-2.78, 0.20, 4.22, 2.00, 1.63, 7.79, repro,
2006-07-10,-1.90, -1.22, 3.10, 2.02, 1.65, 7.80, repro,
2006-07-11,-3.75, -0.10, 7.95, 2.02, 1.64, 7.80, repro,
2006-07-12,-2.51, 0.31, 6.43, 2.03, 1.65, 7.89, repro,
2006-07-13,-1.95, -0.34, 9.80, 2.01, 1.64, 7.82, repro,
2006-07-14,-1.08, -0.82, 9.53, 1.99, 1.64, 7.76, repro,
2006-07-15,-1.20, -0.43, 6.17, 2.02, 1.66, 7.90, repro,
2006-07-16,-0.65, -0.90, -1.33, 1.99, 1.64, 7.81, repro,
2006-07-17,-2.51, -0.62, 3.22, 2.05, 1.69, 8.11, repro,
2006-07-18,-2.43, -1.17, 12.87, 1.95, 1.62, 7.55, repro,
2006-07-19,-1.93, -0.27, 5.99, 1.94, 1.61, 7.52, repro,
2006-07-20,-1.90, 0.42, 7.77, 1.95, 1.63, 7.66, repro,
2006-07-21,-1.80, 0.11, 8.11, 1.95, 1.63, 7.58, repro,
2006-07-22,-1.37, -0.26, 12.47, 2.07, 1.83, 8.09, repro,
2006-07-23,-1.75, 0.02, 10.59, 1.98, 1.68, 7.67, repro,
2006-07-24,-2.14, -0.68, 7.63, 1.94, 1.61, 7.49, repro,
2006-07-25,1.70, -1.61, 2.29, 1.95, 1.62, 7.55, repro,
2006-07-26,-1.06, -0.15, 12.68, 2.02, 1.75, 7.84, repro,
2006-07-27,-1.39, -0.54, 9.65, 1.98, 1.66, 7.61, repro,
2006-07-28,-2.32, 0.02, 14.54, 1.99, 1.66, 7.61, repro,
2006-07-29,0.53, -0.56, -4.24, 1.94, 1.61, 7.53, repro,
2006-07-30,-1.59, -0.89, 5.52, 1.99, 1.67, 7.72, repro,
2006-07-31,-0.55, 0.40, 8.64, 1.99, 1.69, 7.71, repro,
2006-08-01,-0.83, -0.82, 5.07, 1.98, 1.68, 7.70, repro,
2006-08-02,-2.22, -0.05, 10.69, 2.00, 1.72, 7.95, repro,
2006-08-03,-2.52, -1.01, 2.09, 2.00, 1.71, 7.90, repro,
2006-08-04,-2.49, -0.49, 6.08, 2.09, 1.74, 8.04, repro,
2006-08-05,-2.69, -0.90, 14.21, 2.01, 1.73, 8.03, repro,
2006-08-06,-1.74, -0.28, -3.99, 1.96, 1.66, 7.75, repro,
2006-08-07,-1.60, -0.44, 5.08, 2.02, 1.73, 7.96, repro,
2006-08-08,-0.60, -0.86, 11.21, 1.98, 1.68, 7.67, repro,
2006-08-09,-1.14, 0.82, 2.47, 2.00, 1.68, 7.73, repro,
2006-08-10,-0.94, 0.24, 2.96, 1.96, 1.63, 7.64, repro,
2006-08-11,-2.27, -0.60, 6.17, 1.95, 1.63, 7.62, repro,
2006-08-12,-1.55, -0.03, 1.77, 1.94, 1.63, 7.62, repro,
2006-08-13,-2.66, -0.32, 10.59, 1.98, 1.67, 7.68, repro,
2006-08-14,-1.03, -1.30, 7.31, 1.99, 1.68, 7.74, repro,
2006-08-15,-1.14, -0.33, 6.62, 2.06, 1.70, 7.91, repro,
2006-08-16,-2.34, -0.69, 8.90, 2.04, 1.74, 7.84, repro,
2006-08-17,-1.02, 0.59, 1.12, 1.97, 1.70, 7.72, repro,
2006-08-18,-2.84, 0.42, 9.93, 2.01, 1.73, 7.85, repro,
2006-08-19,-1.00, -0.60, 5.53, 1.94, 1.61, 7.46, repro,
2006-08-20,-1.73, -1.12, 5.71, 1.94, 1.62, 7.53, repro,
2006-08-21,-0.74, 0.05, 1.54, 1.95, 1.66, 7.59, repro,
2006-08-22,-0.65, -0.09, 5.61, 1.96, 1.66, 7.66, repro,
2006-08-23,-2.86, -1.01, 15.23, 1.94, 1.66, 7.59, repro,
2006-08-24,-2.62, -0.35, 9.25, 1.96, 1.65, 7.54, repro,
2006-08-25,-1.52, -0.40, 14.07, 2.03, 1.71, 7.95, repro,
2006-08-26,-1.99, -0.33, 6.86, 2.01, 1.72, 7.96, repro,
2006-08-27,-2.37, -0.90, 9.22, 2.01, 1.73, 8.01, repro,
2006-08-28,-2.77, 0.02, 6.89, 2.05, 1.81, 8.24, repro,
2006-08-29,-2.66, 0.58, 9.06, 2.02, 1.77, 8.18, repro,
2006-08-30,-2.00, 0.55, 10.56, 2.10, 1.76, 8.24, repro,
2006-08-31,-3.28, 0.06, 6.77, 2.11, 1.89, 8.37, repro,
2006-09-01,-0.88, 0.08, 3.42, 2.06, 1.76, 8.11, repro,
2006-09-02,-1.00, -0.56, -2.53, 2.00, 1.74, 8.03, repro,
2006-09-03,-1.33, -0.33, 1.99, 1.99, 1.73, 7.91, repro,
2006-09-04,-1.43, -0.43, 2.45, 2.08, 1.78, 8.19, repro,
2006-09-05,-0.21, 0.35, -0.47, 2.08, 1.78, 8.24, repro,
2006-09-06,-0.25, 0.29, -2.12, 2.02, 1.75, 8.06, repro,
2006-09-07,-2.37, -0.03, 8.20, 2.04, 1.78, 8.14, repro,
2006-09-08,-1.23, -1.30, -1.55, 2.03, 1.78, 8.13, repro,
2006-09-09,-1.36, -1.94, 3.72, 1.98, 1.69, 7.69, repro,
2006-09-10,-0.97, 0.03, 0.50, 2.00, 1.70, 7.78, repro,
2006-09-11,0.78, -0.57, 5.18, 2.00, 1.70, 7.74, repro,
2006-09-12,-1.24, -1.41, 2.92, 1.98, 1.71, 7.77, repro,
2006-09-13,-1.84, 0.47, 6.93, 1.98, 1.70, 7.81, repro,
2006-09-14,-2.16, -1.17, 7.87, 2.10, 1.79, 8.05, repro,
2006-09-15,0.11, -0.21, 6.48, 2.05, 1.68, 7.79, repro,
2006-09-16,-0.84, -1.63, 8.40, 1.96, 1.66, 7.61, repro,
2006-09-17,0.05, -0.82, 7.40, 1.97, 1.66, 7.68, repro,
2006-09-18,-1.21, -0.82, 4.77, 1.95, 1.65, 7.58, repro,
2006-09-19,-1.37, 0.16, 3.93, 2.00, 1.74, 7.81, repro,
2006-09-20,-1.63, -2.11, 0.66, 1.96, 1.67, 7.62, repro,
2006-09-21,-2.41, -0.57, 7.09, 1.99, 1.69, 7.79, repro,
2006-09-22,-0.92, -0.67, 14.38, 2.07, 1.74, 7.99, repro,
2006-09-23,-0.87, -1.83, 2.52, 2.05, 1.72, 7.90, repro,
2006-09-24,-1.14, 0.41, 0.78, 2.08, 1.76, 8.15, repro,
2006-09-25,-1.54, 0.33, 5.78, 2.08, 1.72, 8.03, repro,
2006-09-26,-0.01, 0.01, 7.14, 2.06, 1.74, 8.08, repro,
2006-09-27,-0.77, -0.12, -0.50, 2.04, 1.68, 7.82, repro,
2006-09-28,-1.47, -1.24, 5.74, 2.02, 1.71, 7.84, repro,
2006-09-29,-2.46, -1.46, 15.01, 2.00, 1.67, 7.70, repro,
2006-09-30,-2.13, -1.03, 7.70, 2.00, 1.70, 7.85, repro,
2006-10-01,-1.01, -1.41, 5.53, 1.98, 1.66, 7.71, repro,
2006-10-02,-0.76, -0.76, 2.31, 2.02, 1.72, 7.73, repro,
2006-10-03,-1.65, -0.97, 2.87, 2.12, 1.80, 8.13, repro,
2006-10-04,-0.43, 0.07, 0.04, 2.02, 1.68, 7.75, repro,
2006-10-05,-1.13, -0.09, 7.04, 2.05, 1.74, 8.23, repro,
2006-10-06,-0.48, -1.02, 2.16, 2.03, 1.68, 7.89, repro,
2006-10-07,-1.01, -0.36, 0.14, 2.06, 1.73, 8.09, repro,
2006-10-08,-1.41, -0.45, 4.00, 2.05, 1.74, 8.10, repro,
2006-10-09,-1.55, -1.93, 6.32, 2.08, 1.75, 8.15, repro,
2006-10-10,-2.53, -1.70, -0.83, 1.97, 1.66, 7.75, repro,
2006-10-11,-2.19, -1.02, -0.33, 2.00, 1.71, 7.91, repro,
2006-10-12,-2.90, -0.18, 9.61, 2.02, 1.70, 7.90, repro,
2006-10-13,-4.08, -2.19, 9.53, 1.96, 1.66, 7.74, repro,
2006-10-14,0.35, 0.72, 6.29, 2.00, 1.71, 7.89, repro,
2006-10-15,-2.71, -1.84, 13.03, 1.96, 1.70, 7.86, repro,
2006-10-16,-0.45, -1.31, 13.46, 1.98, 1.67, 7.79, repro,
2006-10-17,-1.36, -1.17, 5.12, 2.03, 1.74, 8.10, repro,
2006-10-18,0.12, 0.28, 10.52, 1.98, 1.69, 7.85, repro,
2006-10-19,-1.68, -0.57, 7.58, 2.14, 1.77, 8.45, repro,
2006-10-20,-1.27, -1.13, 10.27, 2.40, 2.15, 10.11, repro,
2006-10-21,-2.33, -0.92, 8.12, 2.15, 1.82, 8.67, repro,
2006-10-22,-0.64, -1.15, -2.63, 1.98, 1.72, 7.91, repro,
2006-10-23,-0.56, -1.07, -3.42, 2.04, 1.78, 8.22, repro,
2006-10-24,-0.99, -1.73, 0.28, 2.02, 1.75, 8.02, repro,
2006-10-25,-0.97, -0.89, 7.30, 2.11, 1.85, 8.14, repro,
2006-10-26,-0.73, -0.31, 5.56, 2.00, 1.77, 8.06, repro,
2006-10-27,0.29, -0.18, -0.02, 1.97, 1.77, 8.01, repro,
2006-10-28,-2.30, -0.96, 2.52, 2.13, 1.77, 8.56, repro,
2006-10-29,-1.34, -1.30, 6.85, 1.97, 1.72, 7.83, repro,
2006-10-30,-2.27, -0.68, 6.30, 1.92, 1.65, 7.64, repro,
2006-10-31,-2.14, -1.47, 6.26, 1.95, 1.72, 7.78, repro,
2006-11-01,-2.62, -1.04, 1.20, 1.94, 1.70, 7.75, repro,
2006-11-02,-1.59, 1.12, 5.63, 1.94, 1.68, 7.70, repro,
2006-11-03,-0.29, 0.89, 1.36, 2.03, 1.84, 8.33, repro,
2006-11-04,-0.16, -1.31, 0.78, 2.01, 1.73, 7.93, repro,
2006-11-05,-0.97, -1.94, 3.27, 2.03, 1.78, 8.16, repro,
2006-11-06,-0.72, -0.38, 1.54, 1.96, 1.73, 7.83, repro,
2006-11-07,-1.07, -0.61, 5.03, 2.04, 1.80, 8.23, repro,
2006-11-08,-1.25, -1.43, 13.33, 2.02, 1.74, 8.07, repro,
2006-11-09,-0.81, -2.09, 6.57, 2.04, 1.80, 8.27, repro,
2006-11-10,-1.21, -0.72, 2.88, 1.98, 1.70, 7.94, repro,
2006-11-11,-1.56, -1.04, 0.84, 2.10, 1.80, 8.31, repro,
2006-11-12,-2.10, -2.26, 4.79, 2.07, 1.81, 8.18, repro,
2006-11-13,-2.62, 0.42, 10.47, 2.02, 1.74, 7.98, repro,
2006-11-14,-2.58, -2.63, 13.41, 1.94, 1.64, 7.61, repro,
2006-11-15,-1.06, -1.41, 1.55, 1.93, 1.69, 7.59, repro,
2006-11-16,-1.39, -1.22, 5.52, 1.92, 1.64, 7.59, repro,
2006-11-17,-2.03, -0.75, 0.18, 1.92, 1.65, 7.54, repro,
2006-11-18,-0.81, -0.48, -2.69, 1.91, 1.64, 7.43, repro,
2006-11-19,-1.43, -1.36, -1.57, 1.90, 1.65, 7.42, repro,
2006-11-20,-0.73, -0.04, 1.95, 1.92, 1.64, 7.54, repro,
2006-11-21,-1.67, -1.11, 4.84, 1.93, 1.69, 7.60, repro,
2006-11-22,-0.93, -0.37, -1.04, 1.90, 1.64, 7.45, repro,
2006-11-23,-2.19, 0.42, 5.07, 1.95, 1.68, 7.71, repro,
2006-11-24,-1.01, -0.47, 3.40, 2.00, 1.72, 7.87, repro,
2006-11-25,-0.88, -1.26, 4.83, 1.95, 1.66, 7.60, repro,
2006-11-26,-1.56, -1.27, 1.58, 1.95, 1.66, 7.67, repro,
2006-11-27,-1.40, -2.65, 2.96, 1.93, 1.66, 7.54, repro,
2006-11-28,-1.70, -2.11, -0.23, 1.91, 1.64, 7.49, repro,
2006-11-29,-2.00, -1.65, -2.83, 1.90, 1.64, 7.41, repro,
2006-11-30,-1.47, -0.01, -2.53, 1.91, 1.65, 7.56, repro,
2006-12-01,-2.14, -0.29, -0.03, 1.90, 1.65, 7.48, repro,
2006-12-02,-1.60, -0.66, -5.11, 1.91, 1.65, 7.47, repro,
2006-12-03,-0.70, -0.29, -2.32, 1.95, 1.71, 7.62, repro,
2006-12-04,-0.28, -0.35, -9.10, 1.95, 1.68, 7.64, repro,
2006-12-05,-1.50, -1.26, -5.02, 1.96, 1.74, 7.78, repro,
2006-12-06,-0.77, -1.37, 0.92, 2.01, 1.82, 8.03, repro,
2006-12-07,-0.98, -1.22, 0.12, 1.95, 1.72, 7.72, repro,
2006-12-08,-2.00, 0.01, 0.75, 1.93, 1.72, 7.59, repro,
2006-12-09,1.77, 0.56, 0.30, 1.96, 1.74, 7.76, repro,
2006-12-10,-1.20, -0.43, 5.11, 1.97, 1.73, 7.69, repro,
2006-12-11,-0.12, -2.11, -2.50, 1.92, 1.69, 7.63, repro,
2006-12-12,-0.17, -0.84, -3.32, 1.98, 1.75, 7.78, repro,
2006-12-13,-0.09, -1.73, -5.68, 1.93, 1.74, 7.65, repro,
2006-12-14,0.70, -0.72, 1.68, 1.90, 1.68, 7.51, repro,
2006-12-15,-0.97, -1.84, -5.93, 2.02, 1.80, 8.07, repro,
2006-12-16,-0.18, -1.26, 2.40, 2.02, 1.83, 7.88, repro,
2006-12-17,-0.10, -1.93, -6.97, 2.03, 1.86, 8.27, repro,
2006-12-18,-0.46, -1.01, -2.12, 2.06, 1.88, 8.40, repro,
2006-12-19,0.04, 0.23, -0.58, 2.05, 1.91, 8.24, repro,
2006-12-20,-0.27, -1.36, -0.82, 1.99, 1.82, 7.82, repro,
2006-12-21,-0.56, -0.51, -4.02, 1.93, 1.81, 7.72, repro,
2006-12-22,0.26, -2.60, -0.35, 2.11, 1.99, 8.44, repro,
2006-12-23,-0.18, -0.47, -5.87, 1.96, 1.76, 7.98, repro,
2006-12-24,-0.73, 0.05, -2.74, 1.90, 1.68, 7.56, repro,
2006-12-25,-1.56, -0.73, -1.56, 1.99, 1.82, 7.92, repro,
2006-12-26,0.14, -0.66, 4.85, 2.01, 1.80, 8.17, repro,
2006-12-27,-1.43, 0.97, 10.02, 2.10, 1.88, 8.49, repro,
2006-12-28,-1.46, -2.19, -0.50, 2.09, 1.96, 8.59, repro,
2006-12-29,-0.45, -1.63, -10.22, 1.97, 1.78, 7.93, repro,
2006-12-30,0.62, -1.40, -6.45, 1.99, 1.80, 8.03, repro,
2006-12-31,0.39, 0.24, -3.07, 2.11, 1.88, 8.42, repro,
2007-01-01,0.13, -2.27, -4.21, 2.11, 1.88, 8.42, repro,
2007-01-02,-0.41, -0.19, -0.59, 2.09, 1.97, 8.46, repro,
2007-01-03,-0.61, -1.20, 5.60, 1.94, 1.84, 7.82, repro,
2007-01-04,0.47, 0.32, 3.51, 1.91, 1.72, 7.73, repro,
2007-01-05,-1.14, -2.40, 3.52, 1.95, 1.75, 7.76, repro,
2007-01-06,-0.12, -0.61, -3.55, 1.94, 1.75, 7.74, repro,
2007-01-07,0.22, -0.29, -9.21, 1.93, 1.70, 7.59, repro,
2007-01-08,-0.06, -0.93, -5.51, 1.96, 1.75, 7.82, repro,
2007-01-09,-1.02, -0.29, -5.30, 1.93, 1.70, 7.52, repro,
2007-01-10,-1.77, -2.14, 4.45, 1.97, 1.68, 7.62, repro,
2007-01-11,-2.00, -1.47, -1.09, 2.02, 1.70, 7.83, repro,
2007-01-12,0.51, -1.00, -7.18, 1.91, 1.64, 7.43, repro,
2007-01-13,-0.96, -0.40, -8.04, 1.88, 1.63, 7.35, repro,
2007-01-14,0.27, -0.69, -11.32, 1.89, 1.65, 7.48, repro,
2007-01-15,-0.68, -0.64, -10.71, 1.87, 1.64, 7.34, repro,
2007-01-16,0.95, 0.73, -10.21, 1.92, 1.62, 7.35, repro,
2007-01-17,-0.83, 0.01, -4.42, 1.93, 1.67, 7.52, repro,
2007-01-18,-0.39, -1.68, -13.68, 1.92, 1.71, 7.52, repro,
2007-01-19,0.37, -0.47, -9.94, 1.97, 1.73, 7.95, repro,
2007-01-20,0.26, -0.51, -3.10, 1.95, 1.67, 7.72, repro,
2007-01-21,-0.96, -0.26, -2.32, 1.94, 1.75, 7.62, repro,
2007-01-22,0.47, 0.36, -10.27, 1.92, 1.67, 7.49, repro,
2007-01-23,-0.50, -0.49, -6.80, 1.89, 1.70, 7.49, repro,
2007-01-24,-0.81, -0.65, -10.03, 1.87, 1.62, 7.26, repro,
2007-01-25,-0.10, -0.48, -11.59, 1.95, 1.70, 7.55, repro,
2007-01-26,-0.98, -1.53, -0.38, 1.88, 1.65, 7.31, repro,
2007-01-27,-0.61, -0.96, -7.15, 1.87, 1.66, 7.36, repro,
2007-01-28,-1.59, -0.56, -7.73, 1.88, 1.62, 7.26, repro,
2007-01-29,-1.40, -0.82, -0.93, 1.88, 1.62, 7.22, repro,
2007-01-30,-0.62, -0.24, -3.52, 1.88, 1.64, 7.33, repro,
2007-01-31,-2.46, -0.35, 0.63, 1.87, 1.62, 7.26, repro,
2007-02-01,-2.28, 0.45, 0.33, 1.91, 1.72, 7.43, repro,
2007-02-02,-1.97, 0.69, -5.19, 1.90, 1.64, 7.36, repro,
2007-02-03,-1.80, -0.75, -6.21, 1.93, 1.64, 7.50, repro,
2007-02-04,0.32, 0.57, -9.67, 1.89, 1.63, 7.30, repro,
2007-02-05,-1.28, -0.08, -9.49, 1.89, 1.64, 7.38, repro,
2007-02-06,-0.46, 0.96, -9.69, 1.91, 1.63, 7.34, repro,
2007-02-07,-1.07, -0.27, -15.48, 1.88, 1.63, 7.30, repro,
2007-02-08,-0.34, 0.46, -5.02, 1.98, 1.74, 7.79, repro,
2007-02-09,-1.52, -0.06, -7.12, 1.93, 1.70, 7.56, repro,
2007-02-10,2.33, 3.06, -9.79, 1.88, 1.62, 7.21, repro,
2007-02-11,0.26, 2.20, 2.27, 1.91, 1.62, 7.31, repro,
2007-02-12,-1.95, -0.59, -9.39, 1.86, 1.61, 7.17, repro,
2007-02-13,-0.29, -0.96, -11.37, 1.86, 1.63, 7.23, repro,
2007-02-14,-1.20, -0.29, -8.51, 1.89, 1.62, 7.31, repro,
2007-02-15,1.18, 1.28, -10.69, 1.87, 1.63, 7.24, repro,
2007-02-16,-0.74, 1.21, -4.72, 1.88, 1.61, 7.25, repro,
2007-02-17,0.19, 0.69, -2.30, 1.94, 1.75, 7.59, repro,
2007-02-18,-0.13, 0.33, -0.65, 1.88, 1.63, 7.31, repro,
2007-02-19,-0.19, -0.11, 4.63, 1.88, 1.63, 7.31, repro,
2007-02-20,-1.13, 0.57, -2.76, 1.92, 1.67, 7.50, repro,
2007-02-21,-0.18, 0.81, -2.73, 1.93, 1.67, 7.39, repro,
2007-02-22,-1.66, 3.60, 1.78, 1.94, 1.69, 7.48, repro,
2007-02-23,-0.74, 0.21, -0.83, 1.97, 1.69, 7.53, repro,
2007-02-24,-0.62, 0.20, -5.40, 1.89, 1.62, 7.29, repro,
2007-02-25,-0.76, -0.52, -2.39, 1.87, 1.61, 7.22, repro,
2007-02-26,-2.19, -0.86, -6.76, 1.87, 1.61, 7.19, repro,
2007-02-27,-0.76, 2.22, 2.28, 1.89, 1.61, 7.21, repro,
2007-02-28,-1.28, 0.77, 6.69, 1.90, 1.62, 7.32, repro,
2007-03-01,0.04, 0.63, -2.31, 1.94, 1.69, 7.54, repro,
2007-03-02,-0.96, 0.26, -5.14, 1.94, 1.68, 7.48, repro,
2007-03-03,-0.79, 0.95, -8.58, 1.90, 1.66, 7.45, repro,
2007-03-04,-0.17, 0.26, -8.93, 1.89, 1.65, 7.35, repro,
2007-03-05,-1.27, 0.70, -5.25, 1.90, 1.65, 7.38, repro,
2007-03-06,-2.11, -0.79, 0.60, 1.93, 1.68, 7.54, repro,
2007-03-07,0.53, -1.07, 7.53, 1.91, 1.67, 7.48, repro,
2007-03-08,-0.27, -0.16, -0.54, 1.91, 1.65, 7.41, repro,
2007-03-09,-1.10, -1.00, 1.62, 1.90, 1.67, 7.47, repro,
2007-03-10,-1.64, 0.90, -0.93, 1.93, 1.70, 7.59, repro,
2007-03-11,-1.83, -0.20, -2.28, 1.91, 1.67, 7.52, repro,
2007-03-12,0.11, -0.09, -0.58, 1.94, 1.71, 7.68, repro,
2007-03-13,-0.71, -0.16, 9.38, 1.89, 1.63, 7.38, repro,
2007-03-14,-0.54, 0.20, -0.32, 1.94, 1.66, 7.40, repro,
2007-03-15,-0.80, 0.53, -1.94, 1.93, 1.68, 7.52, repro,
2007-03-16,-0.47, -0.72, -3.47, 1.91, 1.63, 7.26, repro,
2007-03-17,-0.94, -1.28, 3.88, 1.90, 1.61, 7.31, repro,
2007-03-18,-1.56, 0.72, 1.76, 1.92, 1.65, 7.53, repro,
2007-03-19,-1.60, -1.05, 5.31, 1.92, 1.66, 7.47, repro,
2007-03-20,0.23, 0.19, 3.18, 1.94, 1.63, 7.39, repro,
2007-03-21,-0.81, -0.78, 6.63, 1.95, 1.65, 7.49, repro,
2007-03-22,-0.94, -0.31, 3.13, 1.88, 1.61, 7.27, repro,
2007-03-23,-0.19, 0.86, -3.64, 1.89, 1.60, 7.25, repro,
2007-03-24,-1.30, -0.24, 5.31, 1.91, 1.64, 7.45, repro,
2007-03-25,-1.35, 0.26, 5.29, 1.90, 1.64, 7.44, repro,
2007-03-26,-2.70, -0.44, 1.18, 1.90, 1.61, 7.32, repro,
2007-03-27,0.78, 1.75, 3.71, 1.93, 1.63, 7.42, repro,
2007-03-28,-1.83, 0.29, 0.48, 1.96, 1.66, 7.57, repro,
2007-03-29,-1.43, -0.01, 1.01, 1.90, 1.62, 7.39, repro,
2007-03-30,-0.46, 0.07, 0.89, 1.94, 1.66, 7.44, repro,
2007-03-31,-1.50, -0.46, 4.40, 1.91, 1.61, 7.36, repro,
2007-04-01,-0.48, -0.54, 4.12, 1.90, 1.62, 7.32, repro,
2007-04-02,-2.20, -0.05, 7.77, 1.89, 1.60, 7.24, repro,
2007-04-03,-1.49, 0.39, -1.93, 1.92, 1.66, 7.54, repro,
2007-04-04,-0.25, -0.66, 2.37, 1.91, 1.65, 7.42, repro,
2007-04-05,-0.91, -0.98, 1.10, 1.99, 1.76, 7.82, repro,
2007-04-06,-2.16, 0.41, 0.14, 1.97, 1.73, 7.70, repro,
2007-04-07,-1.68, -0.00, 1.35, 1.93, 1.65, 7.41, repro,
2007-04-08,-2.15, -0.25, 13.43, 1.89, 1.61, 7.27, repro,
2007-04-09,-0.95, 1.03, 2.16, 1.94, 1.65, 7.38, repro,
2007-04-10,-0.86, -0.44, 4.42, 1.95, 1.65, 7.54, repro,
2007-04-11,-1.29, 0.15, 8.34, 1.90, 1.61, 7.30, repro,
2007-04-12,0.52, -2.00, 3.25, 1.90, 1.60, 7.24, repro,
2007-04-13,-2.92, -1.09, -0.04, 1.90, 1.61, 7.32, repro,
2007-04-14,-1.02, -0.18, 7.51, 1.91, 1.63, 7.39, repro,
2007-04-15,-1.87, -2.39, 0.43, 1.94, 1.64, 7.39, repro,
2007-04-16,-0.73, -0.10, 2.92, 1.89, 1.61, 7.26, repro,
2007-04-17,-1.56, -0.82, 0.18, 1.91, 1.61, 7.33, repro,
2007-04-18,-0.75, -0.47, 0.96, 1.97, 1.66, 7.54, repro,
2007-04-19,-0.27, -0.39, -0.36, 1.90, 1.62, 7.38, repro,
2007-04-20,-0.28, -1.83, 6.57, 1.89, 1.61, 7.32, repro,
2007-04-21,-1.67, -1.14, 5.11, 1.92, 1.62, 7.43, repro,
2007-04-22,-0.77, -0.05, 12.64, 1.92, 1.61, 7.37, repro,
2007-04-23,0.00, -1.31, -1.78, 1.95, 1.64, 7.52, repro,
2007-04-24,-0.44, 0.29, -4.96, 1.94, 1.65, 7.49, repro,
2007-04-25,-0.04, -0.89, 0.83, 1.94, 1.64, 7.50, repro,
2007-04-26,0.71, -0.76, -2.71, 1.90, 1.61, 7.33, repro,
2007-04-27,-1.26, 0.49, 7.27, 1.89, 1.60, 7.30, repro,
2007-04-28,-1.68, -0.67, 3.89, 1.91, 1.61, 7.41, repro,
2007-04-29,-2.83, -1.23, -3.86, 1.95, 1.63, 7.38, repro,
2007-04-30,-0.28, -0.89, -2.31, 1.91, 1.60, 7.38, repro,
2007-05-01,-0.16, -0.47, 2.82, 1.89, 1.60, 7.28, repro,
2007-05-02,-1.17, 0.75, -0.22, 1.97, 1.61, 7.60, repro,
2007-05-03,-1.24, 0.18, 0.46, 2.02, 1.63, 7.65, repro,
2007-05-04,-2.15, -1.00, 3.10, 1.95, 1.64, 7.47, repro,
2007-05-05,-2.97, -2.08, -0.69, 2.00, 1.70, 7.56, repro,
2007-05-06,-1.26, -0.50, 0.93, 1.98, 1.64, 7.52, repro,
2007-05-07,0.62, -0.44, -2.22, 1.98, 1.65, 7.54, repro,
2007-05-08,-0.74, 0.39, 1.27, 1.97, 1.64, 7.46, repro,
2007-05-09,-0.82, -0.91, -1.35, 1.93, 1.59, 7.36, repro,
2007-05-10,-0.51, -0.84, -3.46, 2.05, 1.70, 7.84, repro,
2007-05-11,-0.86, -1.06, -1.12, 2.03, 1.66, 7.77, repro,
2007-05-12,-0.31, -0.12, -0.29, 1.95, 1.65, 7.43, repro,
2007-05-13,0.62, -0.20, 0.74, 1.99, 1.67, 7.53, repro,
2007-05-14,-0.43, -0.90, 2.54, 1.99, 1.64, 7.58, repro,
2007-05-15,-0.30, -0.26, 1.62, 1.92, 1.61, 7.39, repro,
2007-05-16,-0.47, -0.87, -0.91, 1.90, 1.59, 7.24, repro,
2007-05-17,0.05, -0.30, 1.35, 1.95, 1.64, 7.50, repro,
2007-05-18,-0.46, 0.34, 0.63, 2.03, 1.71, 7.74, repro,
2007-05-19,-0.71, 0.20, 0.33, 1.94, 1.63, 7.36, repro,
2007-05-20,-0.26, -0.44, 7.23, 2.01, 1.69, 7.67, repro,
2007-05-21,-1.49, -1.09, 6.58, 1.97, 1.65, 7.50, repro,
2007-05-22,-1.52, -1.19, 7.02, 1.96, 1.63, 7.38, repro,
2007-05-23,0.46, 0.33, 9.03, 1.99, 1.69, 7.63, repro,
2007-05-24,-2.04, -0.41, 7.72, 2.03, 1.74, 7.80, repro,
2007-05-25,-0.45, -0.27, -1.31, 1.99, 1.68, 7.49, repro,
2007-05-26,-2.02, 0.09, -1.21, 1.96, 1.63, 7.36, repro,
2007-05-27,-1.74, -0.86, 7.58, 1.97, 1.64, 7.34, repro,
2007-05-28,-1.24, -1.03, 7.38, 1.96, 1.63, 7.39, repro,
2007-05-29,-2.01, -0.38, 1.84, 1.96, 1.61, 7.45, repro,
2007-05-30,-0.41, -1.17, -3.22, 2.02, 1.65, 7.48, repro,
2007-05-31,-0.48, -0.29, 3.82, 2.00, 1.67, 7.49, repro,
2007-06-01,-1.54, -0.67, 4.27, 1.93, 1.60, 7.31, repro,
2007-06-02,-0.74, -0.27, 3.23, 1.91, 1.58, 7.23, repro,
2007-06-03,-0.82, -0.44, 4.28, 1.92, 1.59, 7.29, repro,
2007-06-04,0.10, 0.38, 1.27, 1.91, 1.59, 7.27, repro,
2007-06-05,-0.12, -2.08, 2.45, 1.96, 1.61, 7.44, repro,
2007-06-06,1.13, 0.54, 8.91, 1.93, 1.62, 7.42, repro,
2007-06-07,-0.76, -1.20, 7.48, 1.91, 1.60, 7.29, repro,
2007-06-08,-0.47, 0.33, 6.26, 1.96, 1.63, 7.40, repro,
2007-06-09,0.03, -0.16, -0.57, 1.92, 1.64, 7.40, repro,
2007-06-10,0.32, -0.86, 0.97, 1.94, 1.65, 7.40, repro,
2007-06-11,0.52, 0.43, -0.92, 2.01, 1.71, 7.65, repro,
2007-06-12,-0.67, -0.31, 10.44, 1.99, 1.74, 7.69, repro,
2007-06-13,-0.80, -0.98, 0.73, 1.97, 1.66, 7.45, repro,
2007-06-14,-0.48, -0.57, -1.23, 1.96, 1.65, 7.46, repro,
2007-06-15,-1.58, -0.16, 2.82, 1.95, 1.66, 7.49, repro,
2007-06-16,0.88, -1.27, 2.01, 1.98, 1.71, 7.52, repro,
2007-06-17,-1.39, 0.86, -0.01, 2.00, 1.72, 7.72, repro,
2007-06-18,-0.83, -0.39, 9.64, 1.92, 1.60, 7.29, repro,
2007-06-19,-1.55, -0.12, 1.41, 1.90, 1.59, 7.22, repro,
2007-06-20,-0.73, 1.31, -5.26, 1.91, 1.60, 7.30, repro,
2007-06-21,-2.12, -1.54, 3.47, 1.94, 1.67, 7.49, repro,
2007-06-22,-0.39, -0.03, -0.35, 1.92, 1.60, 7.34, repro,
2007-06-23,-1.64, -0.32, 0.26, 1.92, 1.60, 7.35, repro,
2007-06-24,-0.68, -0.06, -4.17, 1.92, 1.63, 7.41, repro,
2007-06-25,-0.34, 0.04, -2.51, 1.91, 1.60, 7.28, repro,
2007-06-26,-1.44, 0.14, -4.18, 1.92, 1.61, 7.44, repro,
2007-06-27,-0.26, 0.52, -4.65, 1.92, 1.60, 7.33, repro,